Weather History for Hamburg Airport, Germany

Change the Weather History Date:

Tuesday, August 20, 2013

  Actual Average Record
Temperature  
Mean Temperature 58 °F -  
Max Temperature 67 °F 66 °F 87 °F (1996)
Min Temperature 50 °F 50 °F 48 °F (2014)
Degree Days  
Heating Degree Days 6    
Growing Degree Days 8 (Base 50)    
Moisture  
Dew Point 53 °F    
Average Humidity 80    
Maximum Humidity 100    
Minimum Humidity 41    
Precipitation  
Precipitation 0.00 in 0.09 in - ()
Sea Level Pressure  
Sea Level Pressure 30.28 in    
Wind  
Wind Speed 4 mph ()    
Max Wind Speed 12 mph    
Max Gust Speed -    
Visibility 7.8 miles    
Events Fog , Rain    
Averages and records for this station are not official NWS values.
T = Trace of Precipitation, MM = Missing Value Source: Averaged Metar Reports

Daily Weather History Graph

Daily Weather History Graph

Search for Another Location

Airport:

Trip Planner

Search our weather history database for the weather conditions in past years. The results will help you decide how hot, cold, wet, or windy it might be!

Date:

Astronomy

Aug. 20, 2013 Rise Set
Actual Time 6:07 AM CEST 8:37 PM CEST
Civil Twilight 5:28 AM CEST 9:16 PM CEST
Nautical Twilight 4:38 AM CEST 10:06 PM CEST
Astronomical Twilight 3:37 AM CEST 11:06 PM CEST
Moon 7:50 PM CEST (8/20) 5:19 AM CEST (8/20)
Length of Visible Light 15h 47m
Length of Day
14h 29m
Waxing Gibbous, 99% of the Moon is Illuminated
Aug 20
Waxing Gibbous
Aug 21
Full
Aug 28
Last Quarter
Sep 5
New
Sep 12
First Quarter

Hourly Weather History & Observations

Time (CEST) Temp. Dew Point Humidity Pressure Visibility Wind Dir Wind Speed Gust Speed Precip Events Conditions
12:20 AM 59.0 °F 57.2 °F 94% 30.15 in 6.2 mi NW 3.5 mph - N/A   Mostly Cloudy
12:50 AM 59.0 °F 57.2 °F 94% 30.15 in - NW 4.6 mph - N/A   Clear
1:00 AM 58 °F 56 °F 90% 30.18 in 16 mi NW 4.5 mph - -   Mostly Cloudy
1:20 AM 57.2 °F 55.4 °F 94% 30.18 in - NNW 3.5 mph - N/A   Clear
1:50 AM 57.2 °F 55.4 °F 94% 30.18 in - WNW 4.6 mph - N/A   Clear
2:00 AM 57 °F 54 °F 88% 30.20 in 16 mi WNW 4.5 mph - -   Partly Cloudy
2:20 AM 57.2 °F 53.6 °F 88% 30.18 in - NW 8.1 mph - N/A   Clear
2:50 AM 57.2 °F 55.4 °F 94% 30.21 in - NW 3.5 mph - N/A   Clear
3:20 AM 57.2 °F 55.4 °F 94% 30.21 in - NW 3.5 mph - N/A   Clear
3:50 AM 55.4 °F 53.6 °F 94% 30.21 in - WNW 3.5 mph - N/A   Clear
4:00 AM 55 °F 53 °F 92% 30.23 in 12 mi WNW 2.2 mph - -   Partly Cloudy
4:20 AM 55.4 °F 53.6 °F 94% 30.21 in - Variable 2.3 mph - N/A   Clear
4:50 AM 53.6 °F 51.8 °F 94% 30.21 in - WNW 2.3 mph - N/A   Clear
5:20 AM 53.6 °F 51.8 °F 94% 30.21 in 6.2 mi NW 3.5 mph - N/A Fog Shallow Fog
5:50 AM 53.6 °F 51.8 °F 94% 30.24 in 6.2 mi Variable 3.5 mph - N/A Fog Shallow Fog
6:00 AM 53 °F 51 °F 92% 30.25 in 9 mi NW 2.2 mph - - Fog Patches of Fog
6:20 AM 51.8 °F 51.8 °F 100% 30.24 in 6.2 mi NW 3.5 mph - N/A Fog Shallow Fog
6:50 AM 53.6 °F 51.8 °F 94% 30.24 in 6.2 mi Variable 2.3 mph - N/A Fog Patches of Fog
7:00 AM 53 °F 52 °F 93% 30.27 in 9 mi NW 2.2 mph - - Fog Light Fog
7:20 AM 55.4 °F 53.6 °F 94% 30.24 in - West 3.5 mph - N/A   Clear
7:50 AM 55.4 °F 53.6 °F 94% 30.27 in 6.2 mi West 4.6 mph - N/A   Scattered Clouds
8:00 AM 56 °F 54 °F 90% 30.28 in 16 mi West 4.5 mph - -   Partly Cloudy
8:20 AM 57.2 °F 55.4 °F 94% 30.27 in 6.2 mi Variable 2.3 mph - N/A   Mostly Cloudy
8:50 AM 57.2 °F 55.4 °F 94% 30.27 in 6.2 mi West 5.8 mph - N/A   Mostly Cloudy
9:00 AM 58 °F 55 °F 85% 30.30 in 19 mi West 4.5 mph - -   Mostly Cloudy
9:20 AM 59.0 °F 55.4 °F 88% 30.27 in 6.2 mi West 6.9 mph - N/A   Mostly Cloudy
9:50 AM 59.0 °F 55.4 °F 88% 30.30 in 6.2 mi West 5.8 mph - N/A   Mostly Cloudy
10:00 AM 59 °F 55 °F 81% 30.31 in 19 mi West 4.5 mph - -   Mostly Cloudy
10:20 AM 60.8 °F 55.4 °F 82% 30.30 in 6.2 mi West 6.9 mph - N/A   Mostly Cloudy
10:50 AM 60.8 °F 55.4 °F 82% 30.30 in 6.2 mi West 6.9 mph - N/A   Mostly Cloudy
11:20 AM 62.6 °F 55.4 °F 77% 30.30 in 6.2 mi WNW 6.9 mph - N/A   Mostly Cloudy
11:50 AM 60.8 °F 53.6 °F 77% 30.30 in 6.2 mi WNW 10.4 mph - N/A   Mostly Cloudy
12:20 PM 62.6 °F 55.4 °F 77% 30.33 in 6.2 mi West 6.9 mph - N/A   Mostly Cloudy
12:50 PM 64.4 °F 55.4 °F 73% 30.30 in 6.2 mi Variable 3.5 mph - N/A   Mostly Cloudy
1:00 PM 64 °F 55 °F 65% 30.33 in 22 mi SW 4.5 mph - -   Mostly Cloudy
1:20 PM 64.4 °F 53.6 °F 68% 30.30 in 6.2 mi WNW 8.1 mph - N/A   Mostly Cloudy
1:50 PM 62.6 °F 51.8 °F 68% 30.33 in 6.2 mi WNW 11.5 mph - N/A   Mostly Cloudy
2:00 PM 63 °F 52 °F 59% 30.34 in 25 mi WNW 11.2 mph - -   Mostly Cloudy
2:20 PM 64.4 °F 53.6 °F 68% 30.33 in 6.2 mi West 5.8 mph - N/A   Mostly Cloudy
2:50 PM 64.4 °F 55.4 °F 73% 30.33 in 6.2 mi West 5.8 mph - N/A   Mostly Cloudy
3:00 PM 64 °F 54 °F 63% 30.34 in 25 mi West 4.5 mph - - Rain Light Rain Showers
3:20 PM 64.4 °F 53.6 °F 68% 30.30 in 6.2 mi West 4.6 mph - N/A   Mostly Cloudy
3:50 PM 66.2 °F 53.6 °F 64% 30.33 in 6.2 mi WNW 9.2 mph - N/A   Mostly Cloudy
4:00 PM 66 °F 52 °F 52% 30.34 in 25 mi WNW 8.9 mph - -   Mostly Cloudy
4:20 PM 64.4 °F 53.6 °F 68% 30.33 in 6.2 mi NW 8.1 mph - N/A   Mostly Cloudy
4:50 PM 68.0 °F 53.6 °F 60% 30.33 in 6.2 mi NNW 8.1 mph - N/A   Scattered Clouds
5:20 PM 66.2 °F 53.6 °F 64% 30.33 in 6.2 mi North 8.1 mph - N/A   Scattered Clouds
5:50 PM 66.2 °F 51.8 °F 60% 30.33 in 6.2 mi NNW 8.1 mph - N/A   Scattered Clouds
6:20 PM 66.2 °F 53.6 °F 64% 30.33 in 6.2 mi NW 6.9 mph - N/A   Scattered Clouds
6:50 PM 64.4 °F 48.2 °F 56% 30.33 in 6.2 mi WNW 8.1 mph - N/A   Mostly Cloudy
7:00 PM 65 °F 47 °F 41% 30.34 in 28 mi WNW 6.7 mph - -   Mostly Cloudy
7:20 PM 64.4 °F 48.2 °F 56% 30.33 in 6.2 mi WNW 6.9 mph - N/A   Mostly Cloudy
7:50 PM 62.6 °F 50.0 °F 63% 30.33 in 6.2 mi WNW 3.5 mph - N/A   Mostly Cloudy
8:00 PM 63 °F 49 °F 49% 30.35 in 28 mi WNW 4.5 mph - -   Partly Cloudy
8:20 PM 60.8 °F 51.8 °F 72% 30.33 in - West 2.3 mph - N/A   Clear
8:50 PM 59.0 °F 51.8 °F 77% 30.33 in - WSW 3.5 mph - N/A   Clear
9:00 PM 60 °F 52 °F 67% 30.35 in 25 mi WSW 2.2 mph - -   Mostly Cloudy
9:20 PM 59.0 °F 53.6 °F 82% 30.33 in - West 3.5 mph - N/A   Clear
9:50 PM 57.2 °F 53.6 °F 88% 30.33 in - West 4.6 mph - N/A   Clear
10:00 PM 58 °F 53 °F 77% 30.36 in 22 mi West 4.5 mph - -   Partly Cloudy
10:20 PM 55.4 °F 53.6 °F 94% 30.33 in - Variable 2.3 mph - N/A   Clear
10:50 PM 53.6 °F 51.8 °F 94% 30.33 in 6.2 mi Variable 1.2 mph - N/A Fog Patches of Fog
11:20 PM 53.6 °F 51.8 °F 94% 30.33 in 6.2 mi Variable 1.2 mph - N/A Fog Patches of Fog
11:50 PM 53.6 °F 51.8 °F 94% 30.33 in 6.2 mi Calm Calm - N/A Fog Patches of Fog